星链-2507 (STARLINK-2507 )

导读

STARLINK-2507是美国SpaceX公司星链星座中的一颗低轨互联网卫星,于北京时间2021年4月29日发射升空。作为星链互联网星座的组成部分,它运行在近地轨道,为全球尤其是基础设施缺乏地区提供高速、低延迟的宽带互联网服务,属于星链大规模卫星组网建设中的一环,助力实现全球卫星互联网覆盖。

基本信息
目录编号:
48316
目录名称:
STARLINK-2507
国际标识:
2021-036AS
轨道中心:
EARTH
卫星名称:
星链-2507
卫星全名:
星链-2507 (STARLINK-2507 )
卫星状态:
在轨 (已飞行1954 天)
发射日期:
2021-04-29 UTC
国别 :
美国 (US)
星等 :
--
轨道信息
数据来源 国际轨道数据
星历时间: 2026-09-04T15:16:52+0800
9小时前
查看轨道信息
半长轴: 6848.857km
偏心率: 0.0001116
轨道倾角: 53.160°
近地点辐角 85.697°
升交点赤经 347.715°
平近点角 274.416°
近地点: 469.955km
远地点: 471.485km
周期: 94.013分钟
每日圈数: 15.317068
详细信息
固有亮度:
5
最大亮度:
2.5
卫星平台:
Starlink V1.0
覆盖范围:
全球
运营商:
太空探索技术公司
运营商所在国:
美国
制造商(研发单位):
太空探索技术公司
制造商所在国:
美国
使用方式:
暂无
卫星简介
星链(Starlink)计划是由太空探索技术公司(SpaceX)提出的一个巨型低轨卫星互联网星座项目,计划在2019年至2024年间在太空搭建由约1.2万颗卫星组成的“星链”网络,其中1584颗将部署在地球上空550千米处的近地轨道,并从2020年开始工作。该卫星仍在工作。
2D轨道图
3D轨道图
轨道高度分析图
轨道倾角分析图
轨道综合分析图
查看轨道综合分析图
交会数据列表
事件ID 空间交会对象 最接近时刻(TCA) 交会距离 交会风险概率(CRP) 交会风险指数(CRI) 操作
CDM_260906-104404-831605-365821
2026-09-06T
10:44:00+0000
2.872 km
极远距离
1.385392E-6 低风险 0.38
CDM_260905-123204-831606-811421
2026-09-05T
12:32:20+0000
2.838 km
极远距离
1.378829E-6 低风险 0.38
CDM_260906-133804-831606-489521
OBJECT V (64895)
2026-09-06T
13:38:51+0000
2.817 km
极远距离
1.348386E-6 低风险 0.38
CDM_260904-171204-775004-831622
2026-09-04T
17:12:41+0000
2.971 km
极远距离
1.020626E-6 低风险 0.35